Amarillo, TX

10:55 AM CDT on September 22, 2017 (GMT -0500)
Amarillo International

Weather History for KAMA - February, 2014

Change the Weather History Date:

Wednesday, February 19, 2014

  Actual Average Record
Temperature  
Mean Temperature 55 °F 41 °F  
Max Temperature 72 °F 55 °F 78 °F (2001)
Min Temperature 37 °F 27 °F 3 °F (1905)
Degree Days  
Heating Degree Days 10 24  
Month to date heating degree days 556 488  
Since 1 July heating degree days 3154 3073  
Cooling Degree Days 0 0  
Month to date cooling degree days 0 0  
Year to date cooling degree days 0 0  
Growing Degree Days 3 (Base 50)    
Moisture  
Dew Point 18 °F    
Average Humidity 32    
Maximum Humidity 52    
Minimum Humidity 12    
Precipitation  
Precipitation 0.00 in 0.02 in 0.25 in (1987)
Month to date precipitation 0.34 0.39  
Year to date precipitation 0.37 1.11  
Snow  
Snow 0.00 in 0.10 in 2.70 in (1987)
Month to date snowfall 4.7 2.4  
Since 1 July snowfall 12.1 13.5  
Snow Depth 0.00 in    
Sea Level Pressure  
Sea Level Pressure 29.67 in    
Wind  
Wind Speed 12 mph (SSW)    
Max Wind Speed 29 mph    
Max Gust Speed 36 mph    
Visibility 10 miles    
Events      
T = Trace of Precipitation, MM = Missing Value Source: NWS Daily Summary

Daily Weather History Graph

Daily Weather History Graph

Search for Another Location

Airport or City:

Trip Planner

Search our weather history database for the weather conditions in past years. The results will help you decide how hot, cold, wet, or windy it might be!

Date:

Astronomy

Feb. 19, 2014 Rise Set
Actual Time 7:28 AM CST 6:33 PM CST
Civil Twilight 7:02 AM CST 6:59 PM CST
Nautical Twilight 6:33 AM CST 7:28 PM CST
Astronomical Twilight 6:03 AM CST 7:58 PM CST
Moon 11:16 PM CST (2/19) 9:47 AM CST (2/19)
Length of Visible Light 11h 56m
Length of Day
11h 04m
Waning Gibbous, 79% of the Moon is Illuminated
Feb 19
Waning Gibbous
Feb 22
Last Quarter
Mar 1
New
Mar 8
First Quarter
Mar 16
Full

Hourly Weather History & Observations

Time (CST) Temp. Windchill Dew Point Humidity Pressure Visibility Wind Dir Wind Speed Gust Speed Precip Events Conditions
1:53 AM 44.1 °F 37.7 °F 19.0 °F 37% 29.88 in 10.0 mi ENE 12.7 mph - N/A   Clear
2:53 AM 43.0 °F 36.8 °F 19.0 °F 38% 29.87 in 10.0 mi East 11.5 mph - N/A   Clear
3:53 AM 39.9 °F 35.1 °F 19.0 °F 43% 29.86 in 10.0 mi ENE 6.9 mph - N/A   Clear
4:53 AM 39.0 °F 36.8 °F 19.0 °F 45% 29.88 in 10.0 mi NNW 3.5 mph - N/A   Clear
5:53 AM 39.0 °F 35.7 °F 19.0 °F 45% 29.87 in 10.0 mi North 4.6 mph - N/A   Clear
6:53 AM 37.0 °F 33.3 °F 21.0 °F 52% 29.89 in 10.0 mi NW 4.6 mph - N/A   Clear
7:53 AM 37.0 °F - 21.0 °F 52% 29.88 in 10.0 mi Calm Calm - N/A   Clear
8:53 AM 44.1 °F 40.1 °F 19.9 °F 38% 29.84 in 10.0 mi East 6.9 mph - N/A   Clear
9:53 AM 48.9 °F - 19.9 °F 32% 29.83 in 10.0 mi ESE 10.4 mph - N/A   Clear
10:53 AM 53.1 °F - 24.1 °F 32% 29.79 in 10.0 mi SE 13.8 mph - N/A   Clear
12:53 PM 62.1 °F - 24.1 °F 23% 29.70 in 10.0 mi SW 12.7 mph 21.9 mph N/A   Clear
1:53 PM 66.0 °F - 21.9 °F 19% 29.63 in 10.0 mi SW 16.1 mph 24.2 mph N/A   Clear
2:53 PM 68.0 °F - 19.9 °F 16% 29.59 in 10.0 mi WSW 19.6 mph 24.2 mph N/A   Clear
3:53 PM 71.1 °F - 18.0 °F 13% 29.54 in 10.0 mi WSW 21.9 mph 31.1 mph N/A   Clear
4:53 PM 71.1 °F - 16.0 °F 12% 29.52 in 10.0 mi SW 20.7 mph 27.6 mph N/A   Clear
5:53 PM 69.1 °F - 15.1 °F 13% 29.51 in 10.0 mi SSW 21.9 mph - N/A   Clear
6:53 PM 63.0 °F - 15.1 °F 16% 29.52 in 10.0 mi SSW 10.4 mph - N/A   Clear
7:53 PM 62.1 °F - 14.0 °F 15% 29.51 in 10.0 mi SSW 17.3 mph - N/A   Clear
8:53 PM 55.0 °F - 16.0 °F 22% 29.50 in 10.0 mi SSW 11.5 mph - N/A   Clear
9:53 PM 55.0 °F - 16.0 °F 22% 29.48 in 10.0 mi SSW 11.5 mph - N/A   Clear
10:53 PM 53.1 °F - 16.0 °F 23% 29.45 in 10.0 mi SSW 12.7 mph - N/A   Clear
11:53 PM 54.0 °F - 15.1 °F 22% 29.42 in 10.0 mi SSW 15.0 mph - N/A   Clear